Location: Newark
(20.1200°S, 168.9600°E)
Time: 22:22:04
(UTC+00:00)

BEESAT 2 - Visible Passes

Search period start: 28 January 2020 00:00
Search period end: 07 February 2020 00:00
Orbit: 493 x 535 km, 64.9° (Epoch: 28 January)

Date Brightness Start Highest point End Pass type
(mag) Time Alt. Az. Time Alt. Az. Time Alt. Az.
03 Feb ? 17:53:37 10° NNW 17:57:30 79° WSW 18:01:22 10° SSE visible
04 Feb ? 17:37:37 12° NNW 17:41:11 78° WSW 17:45:02 10° SSE visible
05 Feb ? 17:22:42 25° NNW 17:24:52 78° WSW 17:28:44 10° SSE visible
06 Feb ? 17:07:40 51° NW 17:08:32 77° WSW 17:12:24 10° SSE visible
